Starlink 2589

operational
NORAD ID: 48371 Int'l Des: 2021-038 Owner: SPXS Country: US Constellation: starlink
LEOCIRCULARSTARLINK_TYPE

关于 Starlink 2589

正在加载描述...

实时位置

正在加载3D地球...

即将过境

高度历史

Altitude vs Time

uPlot chart will show altitude changes over time

两行轨道根数

1 48371U 21038U 26036.64970145 .00001972 00000-0 15122-3 0 9993
2 48371 53.0577 135.4557 0001711 106.1302 253.9875 15.06413308262331
Epoch: Feb 5, 2026 • Age: 18 hours

当前状态

高度 547.4 km
速度 7.59 km/s
星下点 18.27°N, 128.22°W
发射日期 May 4, 2021
运行时间 4.7 years
类型 internet

技术详情

分类 Payload
质量 260.00 kg
干质量 248.00 kg
总质量 260.00 kg
长度 0.20 m
直径 2.80 m
跨度 9.00 m
形状 Box + pan
制造商 SPXS
平台类型 Starlink
阶段状态 In Orbit
所有者/国家 SPXS/US

大型星座

Loading constellations...